FW0464 Weather Reports


time (UTC)temp
F
wind
direction
speed
knots
gust
knots
rain 1hr
in
rain 24hr
in
rain mn
in
humidity
%
barometer
mb
20260502194544 62 19 11.3 22.6 0.00 0.00 0.00 38 1014.0
20260502193044 63 11 13.0 21.7 0.00 0.00 0.00 38 1014.1
20260502191541 61 23 9.6 27.8 0.00 0.00 0.00 41 1014.1
20260502190041 60 344 9.6 23.5 0.00 0.00 0.00 42 1014.2
20260502184540 60 350 16.5 25.2 0.00 0.00 0.00 41 1014.2
20260502183040 60 30 18.2 24.3 0.00 0.00 0.00 40 1014.2
20260502181556 61 9 16.5 24.3 0.00 0.00 0.00 39 1014.1
20260502163027 59 350 13.9 23.5 0.00 0.00 0.00 44 1013.8
20260502161527 60 21 15.6 22.6 0.00 0.00 0.00 42 1013.7
20260502151520 57 15 12.2 19.1 0.00 0.00 0.00 49 1013.3
20260502130104 50 355 5.2 13.0 0.00 0.00 0.00 59 1013.1
20260502123057 49 5 6.1 12.2 0.00 0.00 0.00 59 1013.0
20260502121556 48 5 7.8 15.6 0.00 0.00 0.00 60 1012.9
20260502114556 48 331 8.7 13.9 0.00 0.00 0.00 59 1012.6
20260502113053 46 349 6.1 9.6 0.00 0.00 0.00 61 1012.8
20260502111551 47 337 3.5 8.7 0.00 0.00 0.00 60 1012.7
20260502110057 47 332 4.3 7.8 0.00 0.00 0.00 59 1012.7
20260502104550 47 293 3.5 7.0 0.00 0.00 0.00 59 1012.6
20260502103055 47 286 4.3 7.0 0.00 0.00 0.00 58 1012.4
20260502101551 48 321 3.5 5.2 0.00 0.00 0.00 57 1012.2
20260502071535 49 229 8.7 10.4 0.00 0.00 0.00 55 1012.4
20260502070037 47 215 7.0 9.6 0.00 0.00 0.00 56 1012.5
20260502064549 48 213 7.8 10.4 0.00 0.00 0.00 54 1012.6
20260502063035 49 225 6.1 8.7 0.00 0.00 0.00 52 1012.7
20260502061527 50 194 7.8 9.6 0.00 0.00 0.00 50 1012.6
20260502060025 51 210 7.8 9.6 0.00 0.00 0.00 48 1012.8
20260502054526 51 195 9.6 11.3 0.00 0.00 0.00 46 1012.7
20260502053022 51 207 9.6 11.3 0.00 0.00 0.00 47 1012.8
20260502051527 50 206 8.7 9.6 0.00 0.00 0.00 48 1012.9
20260502050024 50 199 8.7 10.4 0.00 0.00 0.00 47 1012.9
20260502044525 48 186 7.0 8.7 0.00 0.00 0.00 48 1013.0
20260502043118 49 182 7.0 8.7 0.00 0.00 0.00 46 1013.2
20260502041517 49 186 7.0 9.6 0.00 0.00 0.00 45 1013.4
20260502040029 48 175 7.8 9.6 0.00 0.00 0.00 45 1013.5
20260502034517 48 180 7.0 8.7 0.00 0.00 0.00 46 1013.5
20260502033017 48 181 7.0 7.8 0.00 0.00 0.00 45 1013.7
20260502031515 49 189 5.2 7.8 0.00 0.00 0.00 44 1013.8
20260502030015 50 184 7.0 9.6 0.00 0.00 0.00 41 1013.8
20260502024521 51 177 8.7 10.4 0.00 0.00 0.00 39 1013.8
20260502023014 52 177 9.6 10.4 0.00 0.00 0.00 39 1013.8
20260502021512 53 178 8.7 9.6 0.00 0.00 0.00 38 1013.9
20260502020011 55 180 7.8 9.6 0.00 0.00 0.00 37 1014.1
20260502014526 58 181 6.1 7.8 0.00 0.00 0.00 35 1014.3
20260502013007 60 180 5.2 7.0 0.00 0.00 0.00 30 1014.4
20260502011506 62 188 5.2 8.7 0.00 0.00 0.00 29 1014.6
20260502010004 63 229 7.8 10.4 0.00 0.00 0.00 27 1014.8
20260502004504 63 211 7.0 10.4 0.00 0.00 0.00 26 1014.9
20260502003002 64 223 7.0 13.0 0.00 0.00 0.00 25 1015.1
20260502001501 64 238 6.1 9.6 0.00 0.00 0.00 25 1015.3
20260502000002 64 254 7.8 14.8 0.00 0.00 0.00 25 1015.5
20260501234600 64 210 8.7 12.2 0.00 0.00 0.00 26 1015.5
20260501233058 64 205 7.8 13.0 0.00 0.00 0.00 24 1015.6
20260501231556 64 204 7.0 17.4 0.00 0.00 0.00 24 1015.7
20260501230056 64 196 7.8 12.2 0.00 0.00 0.00 23 1015.7
20260501224601 64 220 6.1 10.4 0.00 0.00 0.00 21 1015.8
20260501223054 65 186 9.6 16.5 0.00 0.00 0.00 24 1015.8
20260501221551 64 171 9.6 15.6 0.00 0.00 0.00 24 1016.1
20260501220051 64 261 3.5 17.4 0.00 0.00 0.00 22 1016.3
20260501214550 64 188 3.5 17.4 0.00 0.00 0.00 23 1016.4
20260501213052 62 219 5.2 15.6 0.00 0.00 0.00 24 1016.7
20260501211550 63 244 7.0 14.8 0.00 0.00 0.00 26 1016.8
20260501210053 62 162 7.8 13.9 0.00 0.00 0.00 24 1016.9
20260501204541 62 179 5.2 12.2 0.00 0.00 0.00 22 1017.2
20260501203041 62 215 7.0 14.8 0.00 0.00 0.00 24 1017.2
20260501201538 61 196 7.8 13.9 0.00 0.00 0.00 25 1017.4
20260501200035 60 221 8.7 13.0 0.00 0.00 0.00 24 1017.5